Location: Dillon
(41.1766°N, 107.0923°W)
Time: 15:20:32
(UTC+00:00)

BlueWalker 3 - Visible Passes

Search period start: 08 December 2022 00:00
Search period end: 18 December 2022 00:00
Orbit: 501 x 518 km, 53.2° (Epoch: 08 December)

Date Brightness Start Highest point End Pass type
(mag) Time Alt. Az. Time Alt. Az. Time Alt. Az.
08 Dec 3.1 01:40:48 10° NW 01:43:20 33° NNW 01:43:20 33° NNW visible
09 Dec 2.2 01:22:22 10° NW 01:26:07 48° NNE 01:26:07 48° NNE visible
10 Dec 2.1 01:03:56 10° NW 01:07:45 51° NNE 01:09:06 34° E visible
10 Dec 5.0 02:43:06 10° WNW 02:43:58 14° W 02:43:58 14° W visible
11 Dec 2.1 00:45:30 10° NW 00:49:20 54° NE 00:52:21 15° ESE visible
11 Dec 4.4 02:24:46 10° W 02:27:14 20° WSW 02:27:14 20° WSW visible
12 Dec 2.0 00:27:04 10° NW 00:30:56 57° NE 00:34:44 10° ESE visible
12 Dec 4.5 02:06:26 10° W 02:09:16 19° SW 02:10:55 15° SSW visible
13 Dec 2.0 00:08:36 10° NW 00:12:30 61° NE 00:16:20 10° ESE visible
13 Dec 4.7 01:48:06 10° W 01:50:49 18° SW 01:53:29 10° S visible
14 Dec 4.9 01:29:46 10° W 01:32:20 17° SW 01:34:53 10° S visible
15 Dec 5.0 01:11:27 10° W 01:13:51 16° SW 01:16:15 10° SSW visible
16 Dec 5.2 00:53:10 10° W 00:55:22 15° SW 00:57:35 10° SSW visible
17 Dec 5.3 00:34:53 10° W 00:36:53 14° SW 00:38:53 10° SSW visible
